Location: Unspecified
(0.0000°N, 0.0000°E)
Time: 06:22:37
(UTC+02:00)

PROBA 2 - Pass Details

Date: 04 June 2022
Orbit: 704 x 725 km, 98.2° (Epoch: 04 July)

Event Time Altitude Azimuth Distance (km) Brightness Sun altitude
Rises 20:59:21 0° 334° (NNW) 3,079 ? -14.0°
Reaches altitude 10° 21:03:13 10° 302° (WNW) 2,167 ? -14.9°
Maximum altitude 21:04:46 11° 282° (WNW) 2,068 ? -15.3°
Drops below altitude 10° 21:06:19 10° 263° (W) 2,172 ? -15.6°
Sets 21:10:14 0° 230° (SW) 3,098 ? -16.5°
